Terminal Aerodrome Forecast
Issued by NWS Blacksburg, VA

Current Version | Previous Version | Text Only | Print | Product List | Glossary Off
Versions: 1 2 3 4 5 6 7 8 9 10 11 12 13 14 15 16 17 18 19 20 21 22 23 24 25 26 27 28 29 30 31 32 33 34 35 36 37 38 39 40 41 42 43 44 45 46 47 48 49 50

000
FTUS41 KRNK 061042 AAA
TAFBLF
TAF AMD
KBLF 061042Z 0611/0706 00000KT P6SM -SHRA SCT030 OVC060
      TEMPO 0611/0613 5SM -SHRA BR OVC020
     FM061300 25004KT P6SM SCT006 OVC011
     FM061600 27007KT P6SM VCSH OVC050=

USA.gov is the U.S. government's official web portal to all federal, state and local government web resources and services.